Regional Weather Roundup
Issued by NWS Mobile, AL

Home | Current Version | Previous Version | Text Only | Print | Product List | Glossary On
Versions: 1 2 3 4 5 6 7 8 9 10 11 12 13 14 15 16 17 18 19 20 21 22 23 24 25 26 27 28 29 30 31 32 33 34 35 36 37 38 39 40 41 42 43 44 45 46 47 48 49 50
000
ASUS44 KMOB 020010
RWRMOB
REGIONAL WEATHER ROUNDUP
NATIONAL WEATHER SERVICE MOBILE AL
700 PM CDT MON SEP 01 2014

NOTE: "FAIR" INDICATES FEW OR NO CLOUDS BELOW 12,000 FEET WITH NO
      SIGNIFICANT WEATHER AND/OR OBSTRUCTIONS TO VISIBILITY.

  * THESE STATIONS ARE PART OF THE UNIVERSITY OF SOUTH ALABAMA
    MESONET AND ARE NOT UNDER NWS OR FAA QUALITY CONTROL.

ALZ061>064-020100-
COASTAL ALABAMA

CITY           SKY/WX    TMP DP  RH WIND       PRES   REMARKS
MOBILE REG APT CLOUDY    84  76  76 S8        30.06R
6HR MIN TEMP:  84; 6HR MAX TEMP:  92;

BROOKLEY FIELD PTCLDY    85  76  74 S8        30.06R
6HR MIN TEMP:  85; 6HR MAX TEMP:  92;

USA CAMPUS*      N/A     84  73  70 CALM      30.03R
DOG RIVER*       N/A     86  77  74 SE8       30.05R HX  97


CITY           SKY/WX    TMP DP  RH WIND       PRES   REMARKS
MOUNT VERNON*    N/A     82  72  69 CALM      30.04R
SARALAND*      NOT AVBL
BAY MINETTE*   NOT AVBL
LOXLEY*          N/A     82  73  74 S8        30.05R
ROBERTSDALE*     N/A     82  73  74 S6        30.05R
FAIRHOPE*        N/A     84  75  74 SE5       30.04R
ELBERTA*         N/A     84  73  70 E3        30.04R
FOLEY*         NOT AVBL
GRAND BAY*       N/A     84  75  74 S3        30.02R
DAUPHIN ISLND* NOT AVBL
BON SCOUR NWR* NOT AVBL
GULF SHORES    PTCLDY    84  75  74 SE6       30.04R

$$

ALZ051>060-020100-
INTERIOR SOUTHWEST AND SOUTH CENTRAL ALABAMA

CITY           SKY/WX    TMP DP  RH WIND       PRES   REMARKS
GREENVILLE     MOCLDY    78  73  84 CALM      30.06S
6HR MIN TEMP:  78; 6HR MAX TEMP:  95; 6HR PCP:  0.06;

EVERGREEN      MOCLDY    86  73  65 S5        30.05R
6HR MIN TEMP:  86; 6HR MAX TEMP:  96;

CASTLEBERRY*   NOT AVBL
ATMORE*          N/A     84  72  65 S6        30.06R
DIXIE*         NOT AVBL
ANDALUSIA/OPP  PTCLDY    84  75  74 CALM      30.05R
6HR MIN TEMP:  82; 6HR MAX TEMP: 100; 6HR PCP:  0.03;

ANDALUSIA*     NOT AVBL
FLORALA APT    PTCLDY    85  69  58 SW5       30.07R
6HR MIN TEMP:  85; 6HR MAX TEMP:  95;

FLORALA*         N/A     84  68  58 CALM      30.02R

$$

FLZ001>006-020100-
WESTERN FLORIDA PANHANDLE

CITY           SKY/WX    TMP DP  RH WIND       PRES   REMARKS
PENSACOLA      PTCLDY    83  75  77 S9        30.05R
6HR MIN TEMP:  83; 6HR MAX TEMP:  91;

NAS PENSACOLA  PTCLDY    85  76  74 S10       30.04R
6HR MIN TEMP:  85; 6HR MAX TEMP:  92;

MILTON         PTCLDY    84  72  67 S8        30.06R
6HR MIN TEMP:  84; 6HR MAX TEMP:  93;

WHTNG S FIELD  PTCLDY    85  74  69 S5        30.06R
6HR MIN TEMP:  85; 6HR MAX TEMP:  93;



CITY           SKY/WX    TMP DP  RH WIND       PRES   REMARKS
WALNUT HILL*   NOT AVBL
JAY*           NOT AVBL
DUKE FIELD     CLEAR     85  75  71 S8        30.05R
CRESTVIEW      CLEAR     85  72  65 S6        30.07R
6HR MIN TEMP:  85; 6HR MAX TEMP:  95;

VALPARAISO     MOCLDY    85  75  71 S9        30.05R
6HR MIN TEMP:  85; 6HR MAX TEMP:  91;

DESTIN         CLEAR     87  76  69 S3        30.05R HX  97
6HR MIN TEMP:  87; 6HR MAX TEMP:  92;


$$

MSZ076-079-020100-
INTERIOR SOUTHEAST MISSISSIPPI

CITY           SKY/WX    TMP DP  RH WIND       PRES   REMARKS
LEAKESVILLE*     N/A     84  70  61 S5          N/A
AGRICOLA*      NOT AVBL

$$

MARINE OBSERVATIONS

STATION/POSITION TIME  TEMP    WIND        PRES    WAVE
                       AIR SEA DIR/SP/G            HT/PER
                 (UTC) (F)     (DEG/KT/KT) (MB)    (FT/S)
PASCAGOULA       0000           80/  7/  8 1016.9S
PETIT BOIS ISLND 0000   85     160/ 12/ 14 1017.1R
GRAND BAY        2300   85     170/ 12     1018.0R
KATRINA CUT      2300   85     160/ 15     1017.3S
CEDAR POINT      2300   85     160/ 14     1017.3R
E DAUPHIN ISLAND 0000   85     150/ 13/ 14 1017.2R
MIDDLE BAY LIGHT 2300   86     150/ 15     1016.3F
USCG MOBILE BAY  0000   86 87  170/  8/ 12 1016.3R
STATE DOCKS      0000   86 87              1017.1R
MEAHER PARK      2300   87     170/ 12     1016.3R
WEEKS BAY        2300   87                   N/A
FORT MORGAN      0000   85     170/ 13/ 15 1016.7R
12 S ORANGE BCH  0000   85 86  160/ 12/ 14 1016.9S   3/ 7
PENSACOLA BAY    0000   87 89  170/  7/ 12 1017.5S
64 S DAUPHIN ISL 2200          170/ 14       N/A
67 S FORT MORGAN 2300   82                 1016.6S

$$

SELECTED LOCATIONS ACROSS THE REGION

CITY           SKY/WX    TMP DP  RH WIND       PRES   REMARKS
NEW ORLEANS    CLOUDY    83  75  77 S6        30.00R
GULFPORT       PTCLDY    83  75  77 SW3       30.02R
PASCAGOULA AP  LGT RAIN  76  73  91 SW6       30.04R FOG
PASCAGOULA*      N/A     75  75 100 CALM      30.03R
HATTIESBURG    CLOUDY    85  75  72 S8        30.03S
LAUREL         CLOUDY    81  72  74 CALM      30.05S
MERIDIAN       CLOUDY    84  71  65 SW13      30.03R
JACKSON        CLOUDY    78  74  87 S6        30.03R
MONTGOMERY     PTCLDY    87  72  60 CALM      30.03R
TROY           PTCLDY    85  74  69 SW7       30.05R
KINSTON*       NOT AVBL
GENEVA*          N/A     84  70  61 CALM      30.05R
ASHFORD*       NOT AVBL
DOTHAN         PTCLDY    86  71  60 SW8       30.08R
PANAMA CITY    MOCLDY    84  74  71 S3        30.04R

$$




USA.gov is the U.S. government's official web portal to all federal, state and local government web resources and services.